Regional Weather Roundup
Issued by NWS

Home | Current Version | Previous Version | Graphics & Text | Print | Product List | Glossary On
Versions: 1 2 3 4 5 6 7 8 9 10 11 12 13 14 15 16 17 18 19 20 21 22 23 24 25 26 27 28 29 30 31 32 33 34 35 36 37 38 39 40 41 42 43 44 45 46 47 48 49 50
000
ASUS43 KMPX 230301
RWRMN
WEATHER ROUNDUP FOR MINNESOTA
NATIONAL WEATHER SERVICE TWIN CITIES/CHANHASSEN MN
1000 PM CDT THU JUN 22 2017


NOTE: "FAIR" INDICATES FEW OR NO CLOUDS BELOW 12,000 FEET WITH NO
SIGNIFICANT WEATHER AND/OR OBSTRUCTIONS TO VISIBILITY. N/A MEANS
CURRENT SKY AND/OR WEATHER CONDITIONS ARE NOT AVAILABLE.

MNZ060>063-068>070-230400-
   Twin Cities Metro

CITY           SKY/WX    TMP DP  RH WIND       PRES   REMARKS
TWIN CITIES    CLOUDY    66  60  81 NW6       29.75R
ST PAUL        CLOUDY    66  62  87 W6        29.74S
CRYSTAL        CLOUDY    64  56  75 W5        29.74R
BLAINE         CLOUDY    66  57  72 W3        29.75R
LAKEVILLE      CLOUDY    64  64 100 NW6       29.75R
EDEN PRAIRIE   CLOUDY    65  59  81 NW5       29.75R
SOUTH ST PAUL  CLOUDY    67  64  87 W3        29.74R
LAKE ELMO      FAIR      64  63  94 W5        29.75S
$$
MNZ001>005-007-008-013>017-022>024-027-028-230400-
   Northwest Minnesota

CITY           SKY/WX    TMP DP  RH WIND       PRES   REMARKS
BEMIDJI        CLEAR     62  42  47 SW7       29.69S
HALLOCK        CLOUDY    63  46  55 W13       29.65R
ROSEAU           N/A     61  48  63 W13G18    29.63R
WARROAD        CLOUDY    59  48  67 W9        29.63R
CROOKSTON      MOCLDY    61  45  55 W8        29.70R
FOSSTON        CLEAR     55  45  67 SW6       29.70S
DETROIT LAKES  CLEAR     64  37  36 W5        29.75S
MOORHEAD       CLEAR     66  37  34 W8        29.73S
PARK RAPIDS    CLEAR     58  41  53 SW7       29.72S
MAHNOMEN       FAIR      60  43  53 W8        29.71R
$$
MNZ006-009>011-018-025>026-230400-
   North Central Minnesota

CITY           SKY/WX    TMP DP  RH WIND       PRES   REMARKS
BAUDETTE       CLOUDY    62  45  53 W8        29.62S
FLAG ISLAND    CLOUDY    59  46  63 W12G21    29.59R
INTL FALLS     CLEAR     56  43  61 SW3       29.61F
WASKISH        PTCLDY    66  48  52 SW14      29.64F
BIG FORK       CLEAR     55  46  71 CALM      29.68S
LONGVILLE      CLEAR     55  46  71 CALM      29.72R
GRAND RAPIDS   CLEAR     64  43  46 SW3       29.72R
CRANE LAKE     CLEAR     61  39  44 W3        29.66R
ORR            CLEAR     63  34  34 W3        29.64S
COOK           CLEAR     61  43  51 SW5       29.68R
WALKER         FAIR      60  40  47 SW6       29.70S
$$
MNZ012-019>021-037-230400-
   Northeast Minnesota

CITY           SKY/WX    TMP DP  RH WIND       PRES   REMARKS
DULUTH         TSTM      61  55  81 W13       29.73R
ELY            CLEAR     57  48  72 W5        29.67R
HIBBING        CLEAR     58  44  60 W5        29.69R
EVELETH        PTCLDY    58  45  61 CALM      29.70R
DULUTH HARBOR  CLOUDY    70  57  64 SW9       29.68R
TWO HARBORS    MOCLDY    64  55  72 W5        29.68R
SILVER BAY     RAIN      61  55  82 W3        29.68R
GRAND MARAIS     N/A     67  47  48 W6        29.62R
G MARAIS ARPRT CLOUDY    57  45  62 SW5       29.69R
$$
MNZ029>031-032-039>041-046>048-054>057-064-230400-
   West Central Minnesota

CITY           SKY/WX    TMP DP  RH WIND       PRES   REMARKS
FERGUS FALLS   CLEAR     63  45  51 W6        29.74R
WHEATON        CLEAR     64  46  52 W3        29.79R
MORRIS         CLEAR     66  55  68 W3        29.77S
ALEXANDRIA     CLEAR     63  53  70 W6        29.79R
ELBOW LAKE     FAIR      64  44  48 NW3       29.77S
WADENA         CLEAR     61  43  51 W3        29.75R
GLENWOOD       CLEAR     63  55  77 W8        29.79R
APPLETON         N/A     64  54  68 W3        29.78R
BENSON         CLEAR     63  55  77 W5        29.80R
ORTONVILLE     CLEAR     66  54  63 W5        29.79R
MADISON        CLEAR     66  57  72 SW6       29.79S
WILLMAR        FAIR      66  55  68 W6        29.79S
$$
MNZ033>034-036-042>043-049>051-058-059-230400-
   Central Minnesota

CITY           SKY/WX    TMP DP  RH WIND       PRES   REMARKS
ST CLOUD       CLEAR     63  54  72 W8        29.75S
SAUK CENTRE    FAIR      64  56  77 W3        29.78R
PAYNESVILLE    CLEAR     60  55  83 W3        29.78S
AITKIN         PTCLDY    63  52  67 CALM      29.72R
PINE RIVER     CLEAR     61  48  63 CALM      29.76S
BRAINERD       CLEAR     66  46  48 W5        29.74R
STAPLES        CLEAR     61  45  55 W3        29.75R
LONG PRAIRIE   FAIR      63  55  77 S5        29.78R
LITTLE FALLS   CLEAR     64  54  68 W5        29.76R
BUFFALO        PTCLDY    65  54  66 W3        29.77R
MAPLE LAKE     PTCLDY    65  57  74 CALM      29.77R
HUTCHINSON     CLOUDY    62  59  90 W3        29.79R
$$
MNZ037-044-045-052-053-230400-
   East Central Minnesota

CITY           SKY/WX    TMP DP  RH WIND       PRES   REMARKS
PRINCETON      CLOUDY    63  54  72 CALM      29.75S
MORA           CLEAR     63  50  63 W6        29.75S
CAMBRIDGE      CLEAR     66  54  63 CALM      29.73R
RUSH CITY      CLEAR     64  52  63 CALM      29.74R
MOOSE LAKE     CLEAR     63  52  67 SW7       29.70R
HINCKLEY       FAIR      61  52  72 W6        29.73S
CLOQUET        CLOUDY    63  54  72 W8G16     29.72R
MCGREGOR       PTCLDY    66  54  63 CALM      29.73R
$$
MNZ071>073-080-081-089-090-097-098-230400-
   Southwest Minnesota

CITY           SKY/WX    TMP DP  RH WIND       PRES   REMARKS
MONTEVIDEO     CLEAR     63  54  72 W5        29.79S
GRANITE FALLS  CLEAR     63  58  82 W5        29.81R
CANBY          PTCLDY    66  56  70 CALM      29.81S
MARSHALL       CLEAR     62  57  83 SW7       29.81R
REDWOOD FALLS  CLEAR     63  56  78 W5        29.78R
OLIVIA         CLEAR     63  55  77 W5        29.78R
PIPESTONE      CLEAR     64  48  55 CALM      29.84R
WINDOM         CLOUDY    61  55  82 NW7       29.80R
WORTHINGTON    CLOUDY    60  56  86 NW7       29.82R
JACKSON        CLOUDY    61  55  82 CALM      29.81R
TRACY          CLEAR     64  56  73 W6        29.82R
SLAYTON        MOCLDY    61  52  71 NW6       29.83R
$$
MNZ065>067-074>077-082>085-091>093-230400-
   South Central Minnesota

CITY           SKY/WX    TMP DP  RH WIND       PRES   REMARKS
MANKATO        MOCLDY    66  57  72 NW9       29.77R
NEW ULM        CLOUDY    61  55  82 NW3       29.78R
ST JAMES       MOCLDY    63  55  77 NW5       29.79R
FAIRMONT       CLOUDY    66  58  75 N10       29.78R
GLENCOE        CLEAR     62  61  97 CALM      29.77R
FARIBAULT      CLOUDY    66  64  94 CALM      29.76R
OWATONNA       CLOUDY    66  64  94 CALM      29.76R
WASECA         CLOUDY    63  61  94 CALM      29.77S
ALBERT LEA     CLOUDY    68  64  88 N9        29.76R
$$
MNZ078>079-086>088-094>096-230400-
   Southeast Minnesota

CITY           SKY/WX    TMP DP  RH WIND       PRES   REMARKS
ROCHESTER      CLOUDY    66  66 100 N9        29.76R
RED WING       CLOUDY    66  63  88 CALM      29.73R
STANTON        CLOUDY    66  64  92 CALM      29.74R
DODGE CENTER   CLOUDY    66  63  88 N3        29.76R FOG
WINONA         CLOUDY    70  68  94 NW5       29.73R
AUSTIN         CLOUDY    66  64  94 N8        29.75R
PRESTON        CLOUDY    65  63  91 N7        29.75R
$$
ABBREVIATIONS USED IN REMARKS
   TC - TEMPERATURES IN CELSIUS
  WCI - WIND CHILL INDEX
   HX - HEAT INDEX
  VSB - VISIBILITY
$$



USA.gov is the U.S. government's official web portal to all federal, state and local government web resources and services.